Regional Weather Roundup
Issued by NWS Upton, NY

Home | Current Version | Previous Version | Text Only | Print | Product List | Glossary On
Versions: 1 2 3 4 5 6 7 8 9 10 11 12 13 14 15 16 17 18 19 20 21 22 23 24 25 26 27 28 29 30 31 32 33 34 35 36 37 38 39 40 41 42 43 44 45 46 47 48 49 50
000
ASUS41 KOKX 261105
RWROKX

REGIONAL WEATHER ROUNDUP
NATIONAL WEATHER SERVICE NEW YORK NY
600 AM EST WED NOV 26 2014

NOTE: "FAIR" INDICATES FEW OR NO CLOUDS BELOW 12,000 FEET WITH NO
SIGNIFICANT WEATHER AND/OR OBSTRUCTIONS TO VISIBILITY.

NYZ071-072-176-178-NJZ106-104-261200-
NEW YORK CITY METRO AREA


CITY           SKY/WX    TMP DP  RH WIND       PRES   REMARKS
CENTRAL PARK   CLOUDY    46  31  55 NE8       30.13F
LAGUARDIA APRT LGT RAIN  46  31  55 N12       30.12R
KENNEDY INTL   LGT RAIN  48  30  49 N13       30.12F
NEWARK/LIBERTY LGT RAIN  46  31  55 N20G28    30.10F
BRNX BOT. GARD   N/A     43  32  65 N6        30.13R
TETERBORO      LGT RAIN  45  30  55 N13G21    30.11F
$$

NYZ177-179-078>081-261200-
LONG ISLAND NEW YORK

CITY           SKY/WX    TMP DP  RH WIND       PRES   REMARKS
FARMINGDALE    NOT AVBL
ISLIP          LGT RAIN  45  34  65 NE14      30.11S
SHIRLEY        LGT RAIN  43  36  76 N6        30.15R
WESTHAMPTON    LGT RAIN  45  35  68 NE12      30.14R
MONTAUK POINT    N/A     49  35  58 N10       30.15S
$$

NYZ052-065-067-261200-
HUDSON VALLEY

CITY           SKY/WX    TMP DP  RH WIND       PRES   REMARKS
WHITE PLAINS   LGT RAIN  41  30  65 N21G26    30.09F
NEWBURGH       CLOUDY    39  32  75 CALM      30.17
MONTGOMERY     CLOUDY    38  30  73 N6        30.15F WCI  33
POUGHKEEPSIE   CLOUDY    41  29  62 NE9       30.17F
ALBANY         CLOUDY    37  27  67 W6        30.20F WCI  32
$$

NJZ001-105-106-008-010-013-015-019>022-104-261200-
NEW JERSEY

CITY           SKY/WX    TMP DP  RH WIND       PRES   REMARKS
NEWARK/LIBERTY LGT RAIN  46  31  55 N20G28    30.10F
TETERBORO      LGT RAIN  45  30  55 N13G21    30.11F
CALDWELL       CLOUDY    44  29  55 VRB6      30.13F
MORRISTOWN       N/A     46  28  49 N6        30.11F
SOMERVILLE     LGT RAIN  46  29  51 NE10      30.08F
SUSSEX         CLOUDY    40  30  67 NE8       30.14F WCI  34
ANDOVER          N/A     40  29  64 N7        30.12F
TRENTON        LGT RAIN  45  30  55 N12       30.07S
MILLVILLE      LGT RAIN  43  40  89 E8        30.10S
ATLANTIC CITY  LGT RAIN  43  40  89 NE8       30.10S
WRIGHTSTOWN    LGT RAIN  43  37  81 E6        30.06S
TOMS RIVER     CLOUDY    43  39  87 CALM      30.10F
BELMAR         CLOUDY    46  30  53 N7        30.10R
$$

PAZ047>061-062-071-261200-
EASTERN PENNSYLVANIA

CITY           SKY/WX    TMP DP  RH WIND       PRES   REMARKS
PHILADELPHIA   LGT RAIN  47  34  60 NE9       30.11R
ALLENTOWN      CLOUDY    43  28  55 NE12      30.12F
SCRANTON       CLOUDY    38  28  67 NE6       30.15S WCI  33
$$

CTZ002-004>006-009-010-012-RIZ004-006-007-MAZ004-011-015-261200-
SOUTHERN NEW ENGLAND
 IN CT

CITY           SKY/WX    TMP DP  RH WIND       PRES   REMARKS
BRADLEY INTL   CLOUDY    43  28  55 N9        30.16F
HARTFORD       CLOUDY    43  28  55 N9        30.17F
DANBURY        CLOUDY    41  28  60 N10       30.15F
WTRBRY/OXFORD  CLOUDY    39  27  60 N14       30.16F WCI  31
BRIDGEPORT     CLOUDY    44  31  60 NE15G22   30.14R
MERIDEN        CLOUDY    42  29  59 N9        30.15F
NEW HAVEN      CLOUDY    46  30  53 N13       30.13S
CHESTER        FAIR      43  30  61 N8G16     30.15R
GROTON         LGT RAIN  45  30  55 N13       30.14S
WILLIMANTIC    CLOUDY    43  29  57 N7        30.16F

 IN RI

CITY           SKY/WX    TMP DP  RH WIND       PRES   REMARKS
PROVIDENCE     CLOUDY    46  28  49 N8        30.16F
BLOCK ISLAND   CLOUDY    48  30  49 NE9       30.13S
WESTERLY       LGT RAIN  46  30  53 N7        30.15R

 IN MA

CITY           SKY/WX    TMP DP  RH WIND       PRES   REMARKS
BOSTON         CLOUDY    46  28  49 NW9       30.17
WORCESTER      CLOUDY    39  26  59 NW9       30.15F WCI  33
WESTFIELD      CLOUDY    41  28  60 NW12      30.17F
PROVINCETOWN   CLOUDY    48  36  61 N13       30.15F
NANTUCKET      CLOUDY    48  36  63 NE7       30.16S
$$

ANZ330-335-338-340-345-350-353-355-261200-
COASTAL MARINE OBSERVATIONS


STATION/POSITION TIME  SKY/WX   TEMP    WIND        PRES    VSBY  WAVE
                                AIR SEA DIR/SP/G                  HT/PER
                 (UTC)          (F)     (DEG/KT/KT) (MB)    (MI)  (FT/S)
NY HARB ENTRANCE 1100            50 53   30/ 16/ 19 1019.7          3/10
4S FIRE IS       1100               52                N/A           3/ 9
20S FIRE ISLAND  1100            49 54   30/ 17/ 19 1019.1          4/ 9
23SW MTP         1100                                 N/A           5/ 9
HUDSON CANYON    1100            53 59   30/ 21/ 27 1018.0
EXECUTION ROCKS  1100            47 48   40/ 16/ 19   N/A
WESTERN LI SOUND 1100            46      40/ 14/ 16   N/A           1
CENTRAL LI SOUND 1000            46 50   20/ 14/ 17   N/A           2/ 2
EASTERN LI SOUND 1000            48 52   10/ 12/ 14   N/A
ROBBINS REEF     1100            47      10/ 16/ 22 1018.1
$$


>>>>>>>>>>>>>>>>>>>>>>>>>>>> KEY <<<<<<<<<<<<<<<<<<<<<<<<<<<
>                                                          <
>     SKY/WX - SKY CONDITION/PRESENT WEATHER               <
>     TMP    - TEMPERATURE IN FAHRENHEIT                   <
>     DP     - DEWPOINT IN FAHRENHEIT                      <
>     RH     - RELATIVE HUMIDITY IN PERCENT                <
>     WIND   - DIRECTION AND SPEED IN MPH                  <
>     PRES   - MEAN SEA LEVEL PRESSURE IN INCHES OF HG     <
>     WCI    - WIND CHILL INDEX                            <
>     VSB    - VISIBILITY IN MILES                         <
>     HX     - HEAT INDEX                                  <
>     TC     - TEMPERATURE IN CELSIUS                      <
>     VRB    - VARIABLE WIND DIRECTION                     <
>                                                          <
>>>>>>>>>>>>>>>>>>>>>>>>>>>> KEY <<<<<<<<<<<<<<<<<<<<<<<<<<<




USA.gov is the U.S. government's official web portal to all federal, state and local government web resources and services.